{"data":{"norad_id":59668,"intl_designator":"2024-084Q","name":"STARLINK-31866","alt_names":[],"object_type":"PAYLOAD","status":"ACTIVE","operator":null,"country":"US","launch_date":"2024-05-06","launch_site_code":"AFETR","launch_vehicle":null,"mission":null,"orbit_class":"UNKNOWN","rcs_meters":null,"size_class":null,"mass_kg":null,"dimensions":null,"purposes":["comms"],"wikipedia_slug":null,"has_3d_model":false,"image_url":null,"decayed_at":null,"tle_current":{"epoch":"2026-09-21T07:03:31.389120Z","epoch_age_seconds":102730,"freshness":"FRESH","line1":"1 59668U 24084Q   26264.29411330  .00000924  00000+0  43085-4 0  9993","line2":"2 59668  43.0046   9.7239 0001322 263.3492  96.7209 15.27578495134374","mean_motion":15.27578495,"eccentricity":0.0001322,"inclination_deg":43.0046,"raan_deg":9.7239,"arg_perigee_deg":263.3492,"mean_anomaly_deg":96.7209,"bstar":4.3085e-5,"rev_number":13437,"period_min":94.266841587083,"perigee_km":482.14655315712,"apogee_km":483.96065195243,"semimajor_km":6861.1906025548,"source":"CELESTRAK","updated_at":"2026-09-22T09:00:49.028173Z"}}}